TimeEST,TemperatureF,Dew PointF,Humidity,Sea Level PressureIn,VisibilityMPH,Wind Direction,Wind SpeedMPH,Gust SpeedMPH,PrecipitationIn,Events,Conditions,WindDirDegrees,DateUTC
12:53 AM,50.0,46.0,86,30.30,10.0,North,-9999.0,-,N/A,,Clear,0,2012-12-03 05:53:00
1:53 AM,48.0,45.0,89,30.29,10.0,North,-9999.0,-,N/A,,Clear,0,2012-12-03 06:53:00
2:53 AM,48.0,45.0,89,30.30,9.0,North,-9999.0,-,N/A,,Clear,0,2012-12-03 07:53:00
3:53 AM,46.9,44.1,90,30.29,10.0,North,-9999.0,-,N/A,,Clear,0,2012-12-03 08:53:00
4:53 AM,46.0,43.0,89,30.29,9.0,North,-9999.0,-,N/A,,Clear,0,2012-12-03 09:53:00
5:53 AM,46.0,43.0,89,30.30,10.0,North,-9999.0,-,N/A,,Clear,0,2012-12-03 10:53:00
6:53 AM,46.0,43.0,89,30.31,10.0,North,-9999.0,-,N/A,,Clear,0,2012-12-03 11:53:00
7:53 AM,46.0,44.1,93,30.32,9.0,North,-9999.0,-,0.01,,Clear,0,2012-12-03 12:53:00
8:53 AM,53.1,46.9,80,30.32,9.0,North,-9999.0,-,N/A,,Clear,0,2012-12-03 13:53:00
9:53 AM,61.0,48.9,64,30.33,10.0,North,-9999.0,-,N/A,,Clear,0,2012-12-03 14:53:00
10:53 AM,64.0,50.0,60,30.33,10.0,Calm,Calm,-,N/A,,Clear,0,2012-12-03 15:53:00
11:53 AM,68.0,50.0,52,30.30,10.0,SSW,5.8,-,N/A,,Clear,210,2012-12-03 16:53:00
12:53 PM,66.9,48.9,52,30.27,10.0,South,6.9,-,N/A,,Mostly Cloudy,190,2012-12-03 17:53:00
1:53 PM,69.1,48.9,49,30.26,10.0,Variable,6.9,-,N/A,,Mostly Cloudy,0,2012-12-03 18:53:00
2:53 PM,69.1,48.0,47,30.25,10.0,WSW,4.6,-,N/A,,Mostly Cloudy,250,2012-12-03 19:53:00
3:53 PM,69.1,48.0,47,30.24,10.0,SSW,4.6,-,N/A,,Partly Cloudy,210,2012-12-03 20:53:00
4:53 PM,66.9,48.0,51,30.25,10.0,Calm,Calm,-,N/A,,Scattered Clouds,0,2012-12-03 21:53:00
5:53 PM,66.0,48.9,54,30.25,10.0,South,3.5,-,N/A,,Overcast,190,2012-12-03 22:53:00
6:53 PM,63.0,48.9,60,30.27,10.0,Calm,Calm,-,N/A,,Mostly Cloudy,0,2012-12-03 23:53:00
7:53 PM,64.0,48.9,58,30.27,10.0,South,4.6,-,N/A,,Overcast,170,2012-12-04 00:53:00
8:53 PM,64.0,48.9,58,30.27,10.0,South,3.5,-,N/A,,Overcast,170,2012-12-04 01:53:00
9:53 PM,63.0,48.9,60,30.26,10.0,South,4.6,-,N/A,,Overcast,180,2012-12-04 02:53:00
10:53 PM,62.1,50.0,65,30.26,10.0,South,4.6,-,N/A,,Overcast,180,2012-12-04 03:53:00
11:53 PM,61.0,50.0,67,30.26,10.0,South,4.6,-,N/A,,Overcast,190,2012-12-04 04:53:00